THOR ABLESTAR DEB, 48810

Orbit data source: Space-Track

THOR ABLESTAR DEB, 48810 is space debris in LEO originally from a launch on Thu, 29 Jun 1961 UTC launched from the Air Force Eastern Test Range (AFETR). Debris objects in space refer to the collection of defunct objects orbiting the Earth. Examples of debris include non-operational satellites, rocket bodies, and fragments generated from explosions, collisions, or faulty payload assembly.

Loading next visibility...
Identifier
48810, 1961-015MN
Orbit
LEO
Country
Flag of USUS
Related business
Manufacturer
Unknown
Mission
Spacecraft
Bus & Motor
Unknown
Mass
Unknown
Launch date (UTC)
1961-06-29 (65 years ago)
Launch vehicle
Unknown
Launch site
Air Force Eastern Test Range (AFETR)
Object type
Payload
Rocket body
Debris
Shape & HBR
Unknown shape, 0.1 m
Radar Cross Section
Small (<0.1 m²)

Expand to show TLE details & history
Last TLE update: 1 day ago

TLE from 1 day ago
0 THOR ABLESTAR DEB
1 48810U 61015MN  26065.66554576  .00000121  00000-0  15018-3 0  9999
2 48810  66.8549 167.8245 0132929 186.5486 243.5521 13.89351546623118
Epoch: 2026-03-06T15:58Z
TLE epoch observation values (Epoch: 2026-03-06T15:58:23.153Z)
Latitude
59.09346°
Longitude
169.09371°
Altitude
984.383 km
Speed
7.343 km/s
True Right ascension
14h 12m 21s
True Declination
58° 56' 47"
Sunlit
Object was in daylight at epoch
Visualization orbit readout
Latitude
Unknown
Longitude
Unknown
Altitude
Unknown
Speed
Unknown
Apparent Right ascension
Unknown
Apparent Declination
Unknown
Sunlit
N/A
Visualization observer readout
Local Sidereal Time
03:49:55
Azimuth
Unknown
Elevation
Unknown
Doppler factor
Unknown
Orbital elements
Apogee altitude
1,026.429 km
Perigee altitude
832.155 km
Semi-major axis
7,307.429 km
Eccentricity
0.01329
Inclination
66.8549°
RAAN
167.8245°
Arg. of periapsis
186.5486°
True anomaly
242.19842°
Mean anomaly
243.5521°
Eccentric anomaly
242.87425°
Mean motion
3.47453 °/min
Orbital period
103.61 mins
BSTAR
0.00015018
Loading maneuver chart data...
Computing Atmospheric mass density...

Documentation

Showing up to 5 results
|